EW6602 Weather Reports


time (UTC)temp
C
wind
direction
speed
KPH
gust
KPH
rain 1hr
cm
rain 24hr
cm
rain mn
cm
humidity
%
barometer
mb
20260507220819 13 190 4.8 12.9 0.00 0.36 0.20 79 1010.0
20260507220344 13 173 4.8 11.3 0.00 0.36 0.20 79 1010.0
20260507220052 13 199 3.2 9.7 0.03 0.36 0.20 79 1009.7
20260507215824 13 179 3.2 14.5 0.03 0.36 0.20 79 1009.9
20260507215328 13 187 1.6 14.5 0.03 0.36 0.20 79 1010.1
20260507214821 13 168 4.8 14.5 0.03 0.36 0.20 79 1010.1
20260507214613 13 196 6.4 14.5 0.03 0.36 0.20 79 1009.8
20260507214323 13 210 4.8 14.5 0.03 0.36 0.20 80 1010.1
20260507213820 13 157 3.2 12.9 0.03 0.36 0.20 80 1010.0
20260507213357 13 240 1.6 11.3 0.03 0.36 0.20 80 1010.0
20260507213107 13 212 4.8 11.3 0.03 0.36 0.20 79 1009.8
20260507212845 14 228 4.8 11.3 0.03 0.36 0.20 79 1010.0
20260507212342 14 263 3.2 12.9 0.03 0.36 0.20 79 1009.9
20260507211829 13 272 1.6 12.9 0.03 0.36 0.20 79 1009.9
20260507211632 13 271 3.2 12.9 0.03 0.36 0.20 78 1009.7
20260507211321 13 317 3.2 14.5 0.03 0.36 0.20 79 1009.9
20260507210848 13 309 4.8 14.5 0.03 0.36 0.20 79 1009.9
20260507210314 13 277 6.4 14.5 0.00 0.33 0.18 78 1009.9
20260507210108 13 288 1.6 11.3 0.00 0.33 0.18 78 1009.6
20260507205820 14 226 4.8 11.3 0.00 0.33 0.18 78 1009.9
20260507205316 13 252 6.4 11.3 0.00 0.33 0.18 79 1009.8
20260507204829 13 276 4.8 9.7 0.00 0.33 0.18 80 1010.0
20260507204502 13 295 4.8 9.7 0.00 0.33 0.18 80 1009.7
20260507204332 13 185 4.8 11.3 0.00 0.33 0.18 80 1009.9
20260507203829 13 204 4.8 11.3 0.00 0.33 0.18 80 1010.0
20260507203313 13 183 3.2 9.7 0.00 0.33 0.18 80 1010.0
20260507203022 13 225 3.2 11.3 0.00 0.33 0.18 80 1009.7
20260507202823 13 300 6.4 11.3 0.00 0.33 0.18 80 1010.0
20260507202328 13 130 6.4 12.9 0.00 0.33 0.18 80 1010.2
20260507201825 13 209 4.8 12.9 0.00 0.33 0.18 80 1010.2
20260507201550 13 171 4.8 11.3 0.00 0.33 0.18 80 1010.0
20260507201339 13 193 3.2 11.3 0.00 0.33 0.18 80 1010.3
20260507200819 13 187 3.2 12.9 0.00 0.33 0.18 80 1010.3
20260507200340 13 249 4.8 14.5 0.00 0.33 0.18 80 1010.3
20260507200118 13 183 4.8 14.5 0.00 0.33 0.18 80 1010.0
20260507195829 13 312 4.8 9.7 0.00 0.33 0.18 80 1010.2
20260507195325 13 187 3.2 6.4 0.00 0.33 0.18 80 1010.2
20260507194829 13 254 1.6 8.0 0.00 0.33 0.18 80 1010.4
20260507194509 13 202 1.6 8.0 0.00 0.33 0.18 79 1010.3
20260507194329 13 195 3.2 8.0 0.00 0.33 0.18 79 1010.6
20260507193835 13 279 3.2 9.7 0.00 0.33 0.18 80 1010.7
20260507193322 13 215 1.6 9.7 0.00 0.33 0.18 80 1010.6
20260507193033 13 138 1.6 9.7 0.00 0.33 0.18 80 1010.4
20260507192839 13 218 1.6 8.0 0.00 0.33 0.18 81 1010.7
20260507192326 13 196 1.6 9.7 0.00 0.33 0.18 80 1010.9
20260507191823 13 225 1.6 9.7 0.00 0.33 0.18 80 1010.9
20260507191556 12 193 4.8 9.7 0.00 0.33 0.18 79 1010.5
20260507191315 13 156 1.6 11.3 0.00 0.33 0.18 80 1010.7
20260507190848 13 161 4.8 11.3 0.00 0.33 0.18 79 1010.8
20260507190323 13 143 1.6 9.7 0.00 0.33 0.18 79 1010.9
20260507190051 13 150 1.6 9.7 0.00 0.33 0.18 80 1010.7
20260507185831 13 148 3.2 9.7 0.00 0.33 0.18 79 1011.1
20260507185315 13 222 1.6 8.0 0.00 0.36 0.18 80 1011.1
20260507184852 13 193 4.8 8.0 0.00 0.36 0.18 80 1011.1
20260507184541 12 187 0.0 6.4 0.00 0.36 0.18 81 1010.8
20260507184329 12 189 3.2 6.4 0.00 0.36 0.18 82 1011.1
20260507183816 12 128 1.6 6.4 0.03 0.36 0.18 81 1011.2
20260507183332 12 121 3.2 6.4 0.03 0.36 0.18 82 1011.1
20260507183003 12 142 1.6 8.0 0.03 0.36 0.18 82 1010.9
20260507182819 12 143 3.2 8.0 0.03 0.36 0.18 82 1011.2
20260507182336 12 164 3.2 6.4 0.03 0.36 0.18 83 1011.2
20260507181823 12 153 4.8 6.4 0.03 0.36 0.18 83 1011.3
20260507181534 12 145 0.0 8.0 0.03 0.36 0.18 83 1011.0
20260507181340 12 145 1.6 9.7 0.03 0.36 0.18 83 1011.3
20260507180832 12 91 0.0 11.3 0.03 0.36 0.18 82 1011.0
20260507180325 12 108 1.6 11.3 0.03 0.36 0.18 82 1011.6
20260507180051 12 107 3.2 11.3 0.03 0.36 0.18 83 1011.3
20260507175835 12 93 1.6 4.8 0.03 0.36 0.18 83 1011.7
20260507175342 12 93 1.6 4.8 0.03 0.36 0.18 83 1011.4
20260507174818 12 93 0.0 1.6 0.03 0.36 0.18 82 1011.3
20260507174547 12 93 0.0 4.8 0.03 0.36 0.18 82 1011.1
20260507174334 12 93 0.0 4.8 0.03 0.36 0.18 82 1011.3
20260507173821 12 93 1.6 4.8 0.00 0.33 0.15 81 1011.8
20260507173338 12 88 1.6 6.4 0.00 0.33 0.15 80 1011.6
20260507173008 12 88 1.6 6.4 0.00 0.33 0.15 81 1011.4
20260507172826 13 88 3.2 6.4 0.00 0.33 0.15 81 1011.7
20260507172313 13 88 0.0 4.8 0.00 0.33 0.15 81 1011.8
20260507171851 13 88 3.2 4.8 0.00 0.33 0.15 81 1011.8
20260507171517 12 87 0.0 6.4 0.00 0.33 0.15 82 1011.4
20260507171325 13 87 0.0 6.4 0.00 0.33 0.15 82 1011.8
20260507170842 13 87 1.6 6.4 0.00 0.33 0.15 82 1011.9
20260507170358 13 87 3.2 6.4 0.00 0.33 0.15 81 1012.0
20260507170113 13 86 0.0 4.8 0.00 0.33 0.15 81 1011.8
20260507165819 13 86 1.6 4.8 0.00 0.33 0.15 81 1012.1
20260507165315 13 87 3.2 9.7 0.00 0.33 0.15 82 1012.3
20260507164852 13 87 3.2 9.7 0.00 0.33 0.15 81 1012.2
20260507164607 12 85 3.2 9.7 0.00 0.33 0.15 82 1011.9
20260507164318 13 73 3.2 6.4 0.00 0.33 0.15 82 1012.1
20260507163834 13 71 1.6 8.0 0.03 0.33 0.15 82 1012.2
20260507163322 12 69 3.2 8.0 0.03 0.33 0.15 82 1012.3
20260507163025 12 69 1.6 8.0 0.03 0.33 0.15 82 1012.0
20260507162819 12 70 3.2 8.0 0.03 0.33 0.15 82 1012.4
20260507162351 12 60 3.2 6.4 0.03 0.33 0.15 83 1012.4
20260507161818 12 59 3.2 6.4 0.03 0.33 0.15 83 1012.5
20260507161539 12 52 1.6 4.8 0.03 0.33 0.15 83 1012.3
20260507161334 12 44 3.2 4.8 0.03 0.33 0.15 83 1012.5
20260507160850 12 44 1.6 4.8 0.03 0.33 0.15 83 1012.7
20260507160316 12 44 0.0 6.4 0.03 0.33 0.15 82 1013.0
20260507160005 11 44 1.6 6.4 0.03 0.33 0.15 82 1012.6
20260507155826 12 44 1.6 6.4 0.03 0.33 0.15 82 1013.0
20260507155343 12 43 1.6 4.8 0.03 0.33 0.15 83 1013.1
20260507154838 12 42 0.0 1.6 0.03 0.33 0.15 82 1012.9
20260507154527 11 42 0.0 6.4 0.03 0.33 0.15 83 1012.6
20260507154326 12 42 0.0 6.4 0.03 0.33 0.15 83 1013.0
20260507153813 12 42 1.6 6.4 0.00 0.30 0.13 83 1012.9
20260507153330 12 38 1.6 11.3 0.00 0.30 0.13 83 1013.3
20260507153046 11 38 1.6 11.3 0.00 0.30 0.13 83 1012.6
20260507152818 12 49 3.2 11.3 0.00 0.30 0.13 83 1012.7
20260507152315 12 77 1.6 14.5 0.00 0.30 0.13 83 1012.9
20260507151818 12 87 3.2 14.5 0.00 0.30 0.13 83 1012.7
20260507151506 12 64 1.6 8.0 0.00 0.30 0.13 83 1012.4
20260507151334 12 56 1.6 6.4 0.00 0.30 0.13 83 1012.6
20260507150827 12 54 1.6 6.4 0.00 0.30 0.13 83 1012.5
20260507150313 12 44 0.0 0.0 0.00 0.30 0.13 83 1012.9
20260507150116 12 44 0.0 0.0 0.00 0.30 0.13 83 1012.5
20260507145822 12 44 0.0 1.6 0.00 0.30 0.13 83 1012.9
20260507145318 12 44 0.0 6.4 0.00 0.30 0.13 83 1012.7
20260507144842 12 44 1.6 12.9 0.00 0.30 0.13 83 1012.9
20260507144514 11 50 3.2 12.9 0.00 0.30 0.13 83 1012.5
20260507144329 12 72 4.8 12.9 0.00 0.30 0.13 83 1012.9
20260507143842 12 75 3.2 12.9 0.00 0.30 0.13 83 1013.1
20260507143330 12 42 1.6 12.9 0.00 0.30 0.13 83 1013.0
20260507143041 11 85 0.0 12.9 0.00 0.30 0.13 83 1012.7
20260507142846 12 85 1.6 12.9 0.00 0.30 0.13 83 1013.2
20260507142344 12 71 1.6 11.3 0.00 0.30 0.13 83 1013.2
20260507141823 12 46 4.8 11.3 0.00 0.30 0.13 83 1013.2
20260507141544 11 36 0.0 16.1 0.00 0.30 0.13 83 1012.7
20260507141339 12 30 1.6 16.1 0.00 0.30 0.13 83 1013.1
20260507140847 12 75 6.4 16.1 0.00 0.30 0.13 83 1013.1
20260507140323 12 96 1.6 12.9 0.00 0.30 0.13 83 1013.3
20260507140052 11 72 4.8 12.9 0.00 0.30 0.13 83 1013.0
20260507135852 12 48 1.6 12.9 0.00 0.30 0.13 83 1013.4
20260507135319 12 60 3.2 11.3 0.00 0.33 0.13 83 1013.3
20260507134832 12 58 1.6 14.5 0.00 0.33 0.13 82 1013.2
20260507134538 11 77 6.4 14.5 0.00 0.33 0.13 83 1012.9
20260507134316 12 107 3.2 12.9 0.00 0.33 0.13 82 1013.3
20260507133833 12 100 1.6 12.9 0.00 0.33 0.13 82 1013.5
20260507133329 12 63 0.0 8.0 0.00 0.33 0.13 82 1013.5
20260507133110 11 63 1.6 8.0 0.00 0.33 0.13 82 1013.1
20260507132854 12 54 1.6 8.0 0.00 0.33 0.13 82 1013.3
20260507132320 12 54 4.8 9.7 0.00 0.33 0.13 82 1013.3
20260507131833 12 75 4.8 9.7 0.00 0.33 0.13 82 1013.1
20260507131615 11 69 1.6 11.3 0.00 0.33 0.13 82 1012.8
20260507131320 12 67 4.8 11.3 0.00 0.33 0.13 82 1013.0
20260507130837 12 5 3.2 11.3 0.00 0.33 0.13 81 1013.1
20260507130333 12 61 1.6 11.3 0.00 0.33 0.13 82 1013.1
20260507130113 11 43 0.0 11.3 0.00 0.33 0.13 82 1012.7
20260507125833 12 40 3.2 11.3 0.00 0.33 0.13 81 1013.0
20260507125329 12 48 1.6 12.9 0.00 0.43 0.13 81 1013.1
20260507124817 12 46 3.2 12.9 0.00 0.43 0.13 81 1013.0
20260507124526 11 358 3.2 11.3 0.00 0.43 0.13 81 1012.6
20260507124313 12 58 0.0 12.9 0.00 0.43 0.13 81 1012.9
20260507123821 12 54 4.8 12.9 0.00 0.43 0.13 81 1013.0
20260507123316 12 64 1.6 9.7 0.00 0.43 0.13 81 1013.2
20260507123050 11 69 3.2 9.7 0.00 0.43 0.13 81 1012.7
20260507122823 12 47 0.0 6.4 0.00 0.43 0.13 80 1013.1
20260507122319 12 47 1.6 6.4 0.00 0.43 0.13 80 1013.1
20260507121826 12 208 0.0 9.7 0.00 0.43 0.13 80 1012.9
20260507121515 11 208 1.6 9.7 0.00 0.43 0.13 79 1012.5
20260507121343 12 39 1.6 9.7 0.00 0.43 0.13 79 1012.8
20260507120838 12 67 0.0 6.4 0.00 0.43 0.13 79 1012.6
20260507120337 12 67 1.6 9.7 0.00 0.43 0.13 78 1012.6
20260507120112 11 67 3.2 9.7 0.00 0.43 0.13 78 1012.4
20260507115847 12 59 1.6 3.2 0.00 0.43 0.13 77 1012.7
20260507115313 12 54 0.0 4.8 0.00 0.43 0.13 77 1012.8
20260507114830 11 48 1.6 4.8 0.00 0.43 0.13 77 1012.8
20260507114607 11 49 1.6 4.8 0.00 0.43 0.13 76 1012.4
20260507114317 11 49 0.0 4.8 0.00 0.43 0.13 76 1012.7
20260507113850 11 49 1.6 4.8 0.00 0.43 0.13 76 1012.6
20260507113345 11 49 0.0 4.8 0.00 0.43 0.13 76 1012.5
20260507113153 11 49 0.0 4.8 0.00 0.43 0.13 76 1012.1
20260507112825 11 48 0.0 3.2 0.00 0.43 0.13 76 1012.5
20260507112330 11 48 0.0 4.8 0.00 0.43 0.13 75 1012.5
20260507111845 11 47 1.6 4.8 0.00 0.43 0.13 75 1012.4
20260507111540 11 46 0.0 8.0 0.00 0.43 0.13 75 1012.0
20260507111331 11 46 0.0 8.0 0.00 0.43 0.13 75 1012.3
20260507110830 11 68 0.0 3.2 0.00 0.43 0.13 75 1012.2
20260507110325 11 68 0.0 3.2 0.00 0.43 0.13 75 1012.2
20260507110022 11 68 0.0 4.8 0.00 0.43 0.13 75 1011.7
20260507105820 11 68 0.0 4.8 0.00 0.43 0.13 75 1011.9
20260507105356 11 68 1.6 4.8 0.00 0.43 0.13 75 1011.8
20260507104841 11 68 1.6 4.8 0.00 0.43 0.13 75 1011.9
20260507104505 11 68 0.0 4.8 0.00 0.43 0.13 75 1011.5
20260507104337 11 68 0.0 4.8 0.00 0.43 0.13 75 1012.0
20260507103832 11 68 0.0 0.0 0.00 0.43 0.13 75 1012.0
20260507103319 12 68 0.0 0.0 0.00 0.43 0.13 75 1012.0
20260507103017 11 68 0.0 0.0 0.00 0.43 0.13 75 1011.7
20260507102824 12 68 0.0 0.0 0.00 0.43 0.13 75 1012.2
20260507102336 12 68 0.0 1.6 0.00 0.43 0.13 75 1012.1
20260507101824 12 68 0.0 4.8 0.00 0.43 0.13 75 1012.2
20260507101531 11 68 0.0 4.8 0.00 0.43 0.13 75 1011.8
20260507101340 12 68 0.0 4.8 0.00 0.43 0.13 75 1012.1
20260507100828 12 68 0.0 0.0 0.00 0.43 0.13 75 1012.1
20260507100324 12 68 0.0 0.0 0.00 0.43 0.13 75 1012.2
20260507100100 11 68 0.0 0.0 0.00 0.43 0.13 75 1011.8
20260507095823 12 68 0.0 0.0 0.00 0.43 0.13 75 1012.1
20260507095327 12 68 0.0 0.0 0.00 0.43 0.13 75 1012.0
20260507094820 12 68 0.0 8.0 0.00 0.43 0.13 75 1011.9
20260507094556 11 67 0.0 8.0 0.00 0.43 0.13 75 1011.4
20260507094327 12 67 1.6 8.0 0.00 0.43 0.13 75 1011.6
20260507093823 12 85 1.6 9.7 0.00 0.43 0.13 75 1011.6
20260507093331 12 96 3.2 9.7 0.00 0.43 0.13 75 1011.3
20260507093013 12 27 0.0 0.0 0.00 0.43 0.13 74 1011.0
20260507092817 12 27 0.0 0.0 0.00 0.43 0.13 75 1011.6
20260507092335 12 27 0.0 0.0 0.00 0.43 0.13 75 1012.0
20260507091817 12 27 0.0 1.6 0.00 0.43 0.13 74 1011.8
20260507091524 12 27 0.0 4.8 0.00 0.43 0.13 74 1011.5
20260507091354 12 27 0.0 4.8 0.00 0.43 0.13 74 1011.9
20260507090829 12 27 1.6 6.4 0.00 0.43 0.13 74 1011.8
20260507090338 12 24 3.2 6.4 0.00 0.43 0.13 75 1011.9
20260507090110 12 102 1.6 6.4 0.00 0.43 0.13 75 1011.4
20260507085825 12 102 0.0 6.4 0.00 0.43 0.13 74 1011.8
20260507085322 12 89 0.0 3.2 0.00 0.43 0.13 74 1011.6
20260507084855 12 89 1.6 3.2 0.00 0.43 0.13 74 1011.6
20260507084603 12 88 0.0 11.3 0.00 0.43 0.13 74 1011.1
20260507084321 12 88 0.0 11.3 0.00 0.43 0.13 74 1011.3
20260507083837 12 89 3.2 11.3 0.00 0.43 0.13 74 1011.2
20260507083325 12 83 1.6 6.4 0.00 0.43 0.13 74 1011.3
20260507083029 12 50 0.0 3.2 0.00 0.43 0.13 74 1010.9
20260507082821 12 50 0.0 3.2 0.00 0.43 0.13 74 1011.3
20260507082329 12 46 0.0 3.2 0.00 0.43 0.13 74 1011.4
20260507081825 12 46 0.0 4.8 0.00 0.43 0.13 74 1011.4
20260507081600 12 64 0.0 6.4 0.00 0.43 0.13 74 1010.9
20260507081333 12 64 1.6 8.0 0.00 0.43 0.13 74 1011.4
20260507080830 12 55 1.6 8.0 0.00 0.43 0.13 74 1011.4
20260507080337 12 62 0.0 9.7 0.00 0.43 0.13 74 1011.3
20260507080117 12 62 3.2 9.7 0.00 0.43 0.13 74 1010.9
20260507075825 12 70 0.0 12.9 0.00 0.43 0.13 74 1011.2
20260507075322 12 71 1.6 14.5 0.00 0.43 0.13 74 1011.3
20260507074830 13 93 3.2 17.7 0.00 0.43 0.13 74 1011.2
20260507074518 12 42 4.8 17.7 0.00 0.43 0.13 74 1010.7
20260507074327 13 50 6.4 17.7 0.00 0.43 0.13 74 1011.3
20260507073814 13 44 1.6 8.0 0.00 0.43 0.13 74 1011.2
20260507073331 13 76 3.2 8.0 0.00 0.43 0.13 73 1011.0
20260507073049 12 74 0.0 8.0 0.00 0.43 0.13 73 1010.5
20260507072819 13 77 1.6 8.0 0.00 0.43 0.13 73 1010.8
20260507072315 13 110 1.6 6.4 0.00 0.43 0.13 73 1010.6
20260507071823 13 67 0.0 8.0 0.00 0.43 0.13 73 1010.6
20260507071541 13 67 1.6 8.0 0.00 0.43 0.13 73 1010.2
20260507071319 13 71 0.0 8.0 0.00 0.43 0.13 73 1010.6
20260507070826 13 71 1.6 8.0 0.00 0.43 0.13 73 1010.8
20260507070324 13 67 1.6 12.9 0.00 0.43 0.13 73 1010.4
20260507070026 13 65 3.2 12.9 0.00 0.43 0.13 73 1010.0
20260507065833 13 107 0.0 6.4 0.00 0.43 0.13 73 1010.5
20260507065320 13 88 1.6 8.0 0.00 0.43 0.13 73 1010.4
20260507064814 13 72 3.2 8.0 0.00 0.43 0.13 73 1010.4
20260507064553 13 54 1.6 8.0 0.00 0.43 0.13 73 1010.0
20260507064346 13 46 0.0 9.7 0.00 0.43 0.13 73 1010.6
20260507063833 13 62 3.2 14.5 0.00 0.43 0.13 73 1010.5
20260507063329 13 109 3.2 14.5 0.00 0.43 0.13 72 1010.5
20260507063104 13 155 3.2 12.9 0.00 0.43 0.13 72 1010.2
20260507062817 14 79 3.2 12.9 0.00 0.43 0.13 72 1010.6
20260507062333 14 64 8.0 12.9 0.00 0.43 0.13 72 1010.6
20260507061820 15 56 1.6 12.9 0.00 0.43 0.13 72 1010.8
20260507061529 14 15 0.0 20.9 0.00 0.43 0.13 72 1010.3
20260507061337 15 133 3.2 20.9 0.00 0.43 0.13 72 1010.8
20260507060825 15 113 6.4 20.9 0.00 0.43 0.13 72 1010.7
20260507060321 15 103 1.6 16.1 0.00 0.43 0.13 71 1010.6
20260507060100 15 79 3.2 16.1 0.00 0.43 0.13 71 1010.1
20260507055838 15 98 8.0 16.1 0.00 0.43 0.13 71 1010.5
20260507055325 16 344 4.8 12.9 0.00 0.43 0.13 71 1010.7
20260507054821 16 61 3.2 14.5 0.00 0.43 0.13 71 1011.0
20260507054603 16 64 0.0 14.5 0.00 0.43 0.13 71 1010.5
20260507054329 16 64 6.4 14.5 0.00 0.43 0.13 71 1010.8
20260507053825 16 6 3.2 6.4 0.03 0.43 0.13 71 1010.5
20260507053333 16 47 3.2 6.4 0.03 0.43 0.13 71 1010.3
20260507053032 16 54 1.6 8.0 0.03 0.43 0.13 71 1009.8
20260507052829 16 46 1.6 8.0 0.05 0.43 0.13 71 1010.2
20260507052318 16 358 4.8 8.0 0.08 0.43 0.13 71 1010.1
20260507051833 16 335 3.2 9.7 0.10 0.43 0.13 71 1010.1
20260507051601 16 348 4.8 9.7 0.10 0.43 0.13 71 1009.5
20260507051320 16 344 6.4 11.3 0.10 0.43 0.13 71 1009.7
20260507050837 16 106 1.6 11.3 0.10 0.43 0.13 71 1009.1
20260507050353 17 120 1.6 11.3 0.10 0.43 0.13 71 1008.9
20260507050046 16 110 1.6 11.3 0.13 0.43 0.13 71 1008.3
20260507045841 17 96 3.2 11.3 0.13 0.43 0.13 71 1008.8
20260507045332 17 98 0.0 4.8 0.13 0.43 0.13 71 1009.4
20260507044820 17 97 1.6 4.8 0.13 0.43 0.13 71 1010.0
20260507044535 16 75 0.0 1.6 0.13 0.43 0.13 71 1009.8
20260507044337 17 75 0.0 3.2 0.13 0.43 0.13 71 1010.3
20260507043824 17 75 0.0 4.8 0.10 0.41 0.10 71 1010.5
20260507043341 17 75 1.6 6.4 0.10 0.41 0.10 71 1010.4
20260507043003 16 127 0.0 6.4 0.10 0.38 0.08 71 1009.9
20260507042828 16 127 0.0 6.4 0.13 0.38 0.08 71 1010.1
20260507042325 16 338 1.6 8.0 0.18 0.36 0.05 71 1010.3
20260507041832 16 338 3.2 8.0 0.18 0.33 0.03 72 1010.3
20260507041531 16 328 0.0 0.0 0.18 0.33 0.03 72 1009.8
20260507041328 16 328 0.0 0.0 0.18 0.33 0.03 72 1010.2
20260507040816 16 328 0.0 0.0 0.18 0.33 0.03 72 1010.1
20260507040332 16 328 0.0 3.2 0.18 0.33 0.03 72 1010.1
20260507040118 16 328 0.0 4.8 0.15 0.30 0.00 72 1009.5
20260507035814 17 328 1.6 4.8 0.15 0.30 0.00 72 1009.9
20260507035351 17 322 3.2 4.8 0.15 0.30 0.30 72 1010.2
20260507034827 17 50 0.0 1.6 0.15 0.30 0.30 72 1010.0
20260507034553 16 50 0.0 1.6 0.15 0.30 0.30 73 1009.9
20260507034316 17 50 0.0 4.8 0.15 0.30 0.30 73 1010.3
20260507033832 17 50 1.6 4.8 0.15 0.30 0.30 73 1010.3
20260507033349 17 50 1.6 4.8 0.13 0.28 0.28 74 1010.5
20260507033103 16 323 1.6 4.8 0.13 0.28 0.28 74 1010.1
20260507032814 17 322 1.6 4.8 0.08 0.23 0.23 74 1010.7
20260507032331 17 48 3.2 4.8 0.03 0.18 0.18 74 1010.6
20260507031818 17 54 0.0 3.2 0.00 0.15 0.15 74 1010.4
20260507031530 17 54 0.0 3.2 0.00 0.15 0.15 74 1009.9
20260507031335 17 54 0.0 4.8 0.00 0.15 0.15 74 1010.3
20260507030817 17 54 1.6 4.8 0.00 0.15 0.15 75 1010.0
20260507030331 17 54 1.6 4.8 0.00 0.15 0.15 75 1010.0
20260507030053 16 36 0.0 4.8 0.00 0.15 0.15 76 1009.3
20260507025841 17 35 1.6 4.8 0.00 0.15 0.15 76 1009.8
20260507025329 17 324 0.0 0.0 0.00 0.15 0.15 76 1010.1
20260507024825 17 324 0.0 4.8 0.00 0.15 0.15 77 1009.8
20260507024501 17 324 0.0 4.8 0.00 0.15 0.15 77 1009.4
20260507024329 17 324 0.0 4.8 0.00 0.15 0.15 77 1010.0
20260507023844 17 196 1.6 4.8 0.00 0.15 0.15 77 1009.9
20260507023340 17 196 0.0 4.8 0.00 0.15 0.15 77 1009.8
20260507023019 17 196 0.0 4.8 0.00 0.15 0.15 77 1009.4
20260507022847 17 196 0.0 4.8 0.00 0.15 0.15 77 1009.8
20260507022323 17 196 0.0 0.0 0.00 0.15 0.15 77 1009.7
20260507021829 17 196 0.0 0.0 0.00 0.15 0.15 78 1009.8
20260507021518 17 196 0.0 0.0 0.00 0.15 0.15 78 1009.4
20260507021346 17 196 0.0 0.0 0.00 0.15 0.15 78 1009.9
20260507020822 17 196 0.0 0.0 0.00 0.15 0.15 78 1009.6
20260507020355 17 196 0.0 0.0 0.00 0.15 0.15 79 1009.5
20260507020108 17 196 0.0 0.0 0.00 0.15 0.15 79 1009.0
20260507015814 17 196 0.0 0.0 0.00 0.15 0.15 79 1009.5
20260507015330 17 196 0.0 1.6 0.00 0.15 0.15 80 1009.4
20260507014817 18 196 0.0 1.6 0.00 0.15 0.15 80 1009.5
20260507014514 18 196 0.0 1.6 0.00 0.15 0.15 80 1008.6
20260507014323 18 196 0.0 1.6 0.00 0.15 0.15 80 1009.0
20260507013839 18 196 0.0 1.6 0.00 0.15 0.15 80 1009.0
20260507013326 18 196 0.0 8.0 0.00 0.15 0.15 80 1009.4
20260507013032 18 196 0.0 8.0 0.00 0.15 0.15 80 1008.9
20260507012834 18 196 1.6 8.0 0.00 0.15 0.15 80 1009.4
20260507012344 18 196 1.6 4.8 0.00 0.15 0.15 80 1009.5
20260507011827 18 196 0.0 4.8 0.00 0.15 0.15 80 1009.5
20260507011544 18 196 1.6 4.8 0.00 0.15 0.15 80 1009.1
20260507011331 18 196 0.0 3.2 0.00 0.15 0.15 80 1009.7
20260507010815 18 196 0.0 0.0 0.00 0.15 0.15 80 1009.7
20260507010348 18 196 0.0 0.0 0.00 0.15 0.15 80 1009.7
20260507010037 18 196 0.0 0.0 0.00 0.15 0.15 80 1009.2
20260507005836 19 196 0.0 3.2 0.00 0.15 0.15 80 1009.8
20260507005331 19 196 0.0 3.2 0.00 0.15 0.15 80 1009.8
20260507004831 19 196 0.0 3.2 0.00 0.15 0.15 81 1009.6
20260507004529 18 213 0.0 4.8 0.00 0.15 0.15 80 1009.2
20260507004324 19 213 0.0 4.8 0.00 0.15 0.15 80 1009.8
20260507003839 19 213 1.6 4.8 0.00 0.15 0.15 80 1009.7
20260507003352 19 142 0.0 3.2 0.00 0.15 0.15 81 1009.4
20260507003002 19 139 0.0 11.3 0.00 0.15 0.15 81 1009.0
20260507002818 19 150 0.0 11.3 0.00 0.15 0.15 81 1009.7
20260507002332 20 189 1.6 11.3 0.00 0.15 0.15 80 1009.6
20260507001818 20 195 1.6 6.4 0.00 0.15 0.15 80 1009.5
20260507001528 19 195 0.0 6.4 0.00 0.15 0.15 81 1008.9
20260507001334 20 189 1.6 4.8 0.00 0.15 0.15 81 1009.5
20260507000835 20 189 0.0 4.8 0.00 0.15 0.15 80 1009.2
20260507000321 20 189 0.0 6.4 0.00 0.15 0.15 80 1009.2
20260507000017 20 189 0.0 8.0 0.00 0.15 0.15 80 1008.6
20260506235840 20 189 1.6 8.0 0.00 0.15 0.15 80 1009.0
20260506235327 20 193 3.2 8.0 0.00 0.15 0.15 80 1008.9
20260506234844 20 213 1.6 8.0 0.00 0.15 0.15 80 1008.9
20260506234559 20 174 1.6 8.0 0.00 0.15 0.15 80 1008.4
20260506234332 20 158 3.2 11.3 0.00 0.15 0.15 80 1009.0
20260506233820 20 175 3.2 14.5 0.00 0.15 0.15 80 1009.1
20260506233316 20 179 4.8 20.9 0.00 0.15 0.15 80 1009.2
20260506233006 20 162 6.4 20.9 0.00 0.15 0.15 80 1008.8
20260506232832 20 183 6.4 20.9 0.00 0.15 0.15 80 1009.4
20260506232350 21 169 1.6 4.8 0.00 0.15 0.15 80 1009.4
20260506231839 21 159 0.0 11.3 0.00 0.15 0.15 79 1009.3
20260506231511 20 159 1.6 12.9 0.00 0.15 0.15 79 1008.7
20260506231346 21 100 1.6 12.9 0.00 0.15 0.15 79 1009.1
20260506230821 21 169 6.4 12.9 0.00 0.15 0.15 79 1009.1
20260506230326 21 179 6.4 12.9 0.00 0.15 0.15 79 1008.9
20260506230115 21 189 4.8 12.9 0.00 0.15 0.15 79 1008.2
20260506225824 21 160 4.8 9.7 0.00 0.15 0.15 79 1008.8
20260506225318 21 183 1.6 12.9 0.00 0.15 0.15 79 1008.9
20260506224842 21 189 3.2 12.9 0.00 0.15 0.15 79 1008.7
20260506224602 21 190 4.8 12.9 0.00 0.15 0.15 79 1008.0
20260506224320 21 198 6.4 17.7 0.00 0.15 0.15 79 1008.6
20260506223828 21 224 4.8 17.7 0.00 0.15 0.15 79 1008.9
20260506223343 21 198 3.2 11.3 0.00 0.15 0.15 79 1008.8
20260506223110 21 130 3.2 11.3 0.00 0.15 0.15 79 1008.4
20260506222820 21 164 6.4 11.3 0.00 0.15 0.15 79 1009.0
20260506222315 21 182 6.4 16.1 0.00 0.15 0.15 79 1008.9
20260506221852 21 231 6.4 16.1 0.00 0.15 0.15 79 1008.8
20260506221600 21 153 8.0 17.7 0.00 0.15 0.15 78 1008.3
20260506221317 21 200 6.4 12.9 0.00 0.15 0.15 78 1008.9